Location: LDNL
(36.4545°S, 141.6685°E)
Time: 14:15:49
(UTC+11:00)

Courier 1B Rocket - All Passes

Search period start: 23 January 2022 00:00
Search period end: 02 February 2022 00:00
Orbit: 920 x 1202 km, 28.2° (Epoch: 22 January)

Date Brightness Start Highest point End Pass type
(mag) Time Alt. Az. Time Alt. Az. Time Alt. Az.
23 Jan - 13:24:24 10° NNE 13:26:15 11° NNE 13:28:07 10° NE daylight
23 Jan - 15:13:02 10° NW 15:18:46 29° NNE 15:24:52 10° ENE daylight
23 Jan - 17:05:07 10° WNW 17:11:46 44° N 17:18:51 10° ENE daylight
23 Jan - 18:58:13 10° WNW 19:05:00 40° N 19:12:06 10° NE daylight
23 Jan - 20:52:23 10° WNW 20:58:04 23° NNW 21:03:53 10° NNE daylight
24 Jan - 14:12:55 10° NNW 14:17:55 23° NNE 14:23:09 10° ENE daylight
24 Jan - 16:04:23 10° WNW 16:10:43 40° N 16:17:30 10° ENE daylight
24 Jan - 17:57:11 10° WNW 18:03:54 43° N 18:11:00 10° ENE daylight
24 Jan - 19:50:50 10° WNW 19:57:02 28° NNW 20:03:27 10° NE daylight
24 Jan - 21:47:39 10° NW 21:49:53 11° NNW 21:52:09 10° NNW visible
25 Jan - 13:13:17 10° N 13:17:08 16° NNE 13:21:06 10° ENE daylight
25 Jan - 15:03:49 10° NW 15:09:46 35° NNE 15:16:07 10° ENE daylight
25 Jan - 16:56:17 10° WNW 17:02:49 44° N 17:09:49 10° ENE daylight
25 Jan - 18:49:34 10° WNW 18:55:59 34° NNW 19:02:42 10° NE daylight
25 Jan - 20:44:30 10° WNW 20:48:55 16° NNW 20:53:26 10° N daylight
26 Jan - 12:15:05 10° NNE 12:16:23 11° NNE 12:17:43 10° NE daylight
26 Jan - 14:03:25 10° NW 14:08:53 28° NNE 14:14:37 10° ENE daylight
26 Jan - 15:55:28 10° WNW 16:01:47 43° N 16:08:33 10° ENE daylight
26 Jan - 17:48:29 10° WNW 17:54:55 38° N 18:01:46 10° NE daylight
26 Jan - 19:42:34 10° WNW 19:47:56 22° NNW 19:53:29 10° NNE daylight
27 Jan - 13:03:20 10° NNW 13:08:04 22° NNE 13:13:00 10° ENE daylight
27 Jan - 14:54:47 10° WNW 15:00:49 39° N 15:07:15 10° ENE daylight
27 Jan - 16:47:31 10° WNW 16:53:53 41° N 17:00:41 10° ENE daylight
27 Jan - 18:41:05 10° WNW 18:46:56 27° NNW 18:53:04 10° NE daylight
27 Jan - 20:38:20 10° NW 20:39:46 11° NNW 20:41:13 10° NNW daylight
28 Jan - 12:03:41 10° N 12:07:19 16° NNE 12:11:02 10° ENE daylight
28 Jan - 13:54:13 10° NW 13:59:55 34° NNE 14:05:55 10° ENE daylight
28 Jan - 15:46:40 10° WNW 15:52:52 43° N 15:59:31 10° ENE daylight
28 Jan - 17:39:53 10° WNW 17:45:56 32° NNW 17:52:20 10° NE daylight
28 Jan - 19:34:51 10° WNW 19:38:49 15° NNW 19:42:54 10° N daylight
29 Jan - 11:05:32 10° NNE 11:06:36 10° NNE 11:07:40 10° NE daylight
29 Jan - 12:53:50 10° NW 12:59:04 28° NNE 13:04:32 10° ENE daylight
29 Jan - 14:45:53 10° WNW 14:51:55 41° N 14:58:20 10° ENE daylight
29 Jan - 16:38:51 10° WNW 16:44:56 37° N 16:51:26 10° NE daylight
29 Jan - 18:32:55 10° WNW 18:37:52 20° NNW 18:43:02 10° NNE daylight
30 Jan - 11:53:41 10° NNW 11:58:18 21° NNE 12:03:00 10° ENE daylight
30 Jan - 13:45:12 10° WNW 13:51:00 38° N 13:57:06 10° ENE daylight
30 Jan - 15:37:56 10° WNW 15:43:58 40° N 15:50:25 10° ENE daylight
30 Jan - 17:31:29 10° WNW 17:36:55 25° NNW 17:42:40 10° NNE daylight
31 Jan - 10:53:57 10° N 10:57:33 16° NNE 11:01:10 10° ENE daylight
31 Jan - 12:44:36 10° NW 12:50:09 33° NNE 12:55:53 10° ENE daylight
31 Jan - 14:37:05 10° WNW 14:43:02 41° N 14:49:20 10° ENE daylight
31 Jan - 16:30:18 10° WNW 16:36:00 30° NNW 16:42:01 10° NE daylight
31 Jan - 18:25:24 10° NW 18:28:48 14° NNW 18:32:18 10° N daylight
01 Feb - 09:55:30 10° NNE 09:56:49 11° NNE 09:58:09 10° NE daylight
01 Feb - 11:44:10 10° NW 11:49:21 27° NNE 11:54:36 10° ENE daylight
01 Feb - 13:36:18 10° WNW 13:42:08 40° N 13:48:13 10° ENE daylight
01 Feb - 15:29:17 10° WNW 15:35:05 35° N 15:41:11 10° NE daylight
01 Feb - 17:23:25 10° WNW 17:27:55 19° NNW 17:32:36 10° NNE daylight
